| time (UTC) | temp F | wind direction | speed MPH | gust MPH | rain 1hr in | rain 24hr in | rain mn in | humidity % | barometer mb |
| 20260831222526 | 80 | 330 | 1.0 | 4.0 | 0.00 | 0.00 | 0.00 | 20 | 1015.5 |
| 20260831222029 | 80 | 27 | 2.0 | 7.0 | 0.00 | 0.00 | 0.00 | 19 | 1015.5 |
| 20260831221555 | 80 | 2 | 2.0 | 7.0 | 0.00 | 0.00 | 0.00 | 20 | 1015.5 |
| 20260831221027 | 80 | 96 | 2.0 | 9.0 | 0.00 | 0.00 | 0.00 | 18 | 1015.7 |
| 20260831220525 | 80 | 97 | 4.0 | 9.0 | 0.00 | 0.00 | 0.00 | 17 | 1015.7 |
| 20260831220053 | 80 | 65 | 4.0 | 8.0 | 0.00 | 0.00 | 0.00 | 21 | 1015.8 |
| 20260831215526 | 80 | 28 | 3.0 | 6.0 | 0.00 | 0.00 | 0.00 | 21 | 1015.9 |
| 20260831215025 | 80 | 94 | 3.0 | 8.0 | 0.00 | 0.00 | 0.00 | 18 | 1015.8 |
| 20260831214549 | 80 | 41 | 3.0 | 8.0 | 0.00 | 0.00 | 0.00 | 20 | 1016.0 |
| 20260831214030 | 79 | 60 | 2.0 | 7.0 | 0.00 | 0.00 | 0.00 | 24 | 1016.0 |
| 20260831213525 | 79 | 70 | 3.0 | 7.0 | 0.00 | 0.00 | 0.00 | 17 | 1016.1 |
| 20260831213048 | 79 | 19 | 3.0 | 6.0 | 0.00 | 0.00 | 0.00 | 22 | 1016.2 |
| 20260831212524 | 79 | 333 | 2.0 | 6.0 | 0.00 | 0.00 | 0.00 | 23 | 1016.3 |
| 20260831212031 | 79 | 55 | 3.0 | 10.0 | 0.00 | 0.00 | 0.00 | 18 | 1016.3 |
| 20260831211605 | 79 | 138 | 5.0 | 10.0 | 0.00 | 0.00 | 0.00 | 22 | 1016.3 |
| 20260831211025 | 79 | 236 | 1.0 | 4.0 | 0.00 | 0.00 | 0.00 | 23 | 1016.4 |
| 20260831210529 | 79 | 13 | 0.0 | 6.0 | 0.00 | 0.00 | 0.00 | 18 | 1016.6 |
| 20260831210057 | 79 | 0 | 1.0 | 6.0 | 0.00 | 0.00 | 0.00 | 18 | 1016.5 |
| 20260831205525 | 79 | 349 | 1.0 | 5.0 | 0.00 | 0.00 | 0.00 | 20 | 1016.6 |
| 20260831205027 | 79 | 160 | 2.0 | 5.0 | 0.00 | 0.00 | 0.00 | 21 | 1016.7 |
| 20260831204546 | 79 | 229 | 2.0 | 5.0 | 0.00 | 0.00 | 0.00 | 22 | 1016.8 |
| 20260831204025 | 79 | 227 | 1.0 | 5.0 | 0.00 | 0.00 | 0.00 | 24 | 1017.0 |
| 20260831203525 | 78 | 186 | 2.0 | 5.0 | 0.00 | 0.00 | 0.00 | 22 | 1017.0 |
| 20260831203047 | 78 | 330 | 0.0 | 6.0 | 0.00 | 0.00 | 0.00 | 20 | 1016.8 |
| 20260831202525 | 78 | 63 | 1.0 | 6.0 | 0.00 | 0.00 | 0.00 | 19 | 1016.9 |
| 20260831202026 | 78 | 153 | 0.0 | 7.0 | 0.00 | 0.00 | 0.00 | 26 | 1017.1 |
| 20260831201556 | 77 | 147 | 3.0 | 7.0 | 0.00 | 0.00 | 0.00 | 19 | 1017.1 |
| 20260831201026 | 78 | 257 | 2.0 | 7.0 | 0.00 | 0.00 | 0.00 | 19 | 1017.3 |
| 20260831200526 | 78 | 276 | 3.0 | 7.0 | 0.00 | 0.00 | 0.00 | 21 | 1017.3 |
| 20260831200050 | 77 | 49 | 0.0 | 6.0 | 0.00 | 0.00 | 0.00 | 26 | 1017.3 |
| 20260831195527 | 77 | 148 | 3.0 | 6.0 | 0.00 | 0.00 | 0.00 | 24 | 1017.5 |
| 20260831195027 | 77 | 0 | 1.0 | 7.0 | 0.00 | 0.00 | 0.00 | 23 | 1017.4 |
| 20260831194555 | 76 | 189 | 3.0 | 8.0 | 0.00 | 0.00 | 0.00 | 22 | 1017.6 |
| 20260831194026 | 76 | 111 | 4.0 | 8.0 | 0.00 | 0.00 | 0.00 | 26 | 1017.6 |
| 20260831193524 | 76 | 155 | 2.0 | 7.0 | 0.00 | 0.00 | 0.00 | 27 | 1017.6 |
| 20260831193057 | 76 | 99 | 2.0 | 8.0 | 0.00 | 0.00 | 0.00 | 26 | 1017.5 |
| 20260831192526 | 75 | 229 | 2.0 | 8.0 | 0.00 | 0.00 | 0.00 | 24 | 1017.6 |
| 20260831192025 | 75 | 141 | 3.0 | 8.0 | 0.00 | 0.00 | 0.00 | 25 | 1017.6 |
| 20260831191551 | 75 | 79 | 3.0 | 9.0 | 0.00 | 0.00 | 0.00 | 25 | 1017.7 |
| 20260831191024 | 75 | 135 | 4.0 | 9.0 | 0.00 | 0.00 | 0.00 | 29 | 1017.8 |
| 20260831190524 | 74 | 150 | 3.0 | 9.0 | 0.00 | 0.00 | 0.00 | 33 | 1017.7 |
| 20260831190050 | 74 | 86 | 3.0 | 8.0 | 0.00 | 0.00 | 0.00 | 31 | 1017.8 |
| 20260831185525 | 74 | 59 | 4.0 | 8.0 | 0.00 | 0.00 | 0.00 | 30 | 1017.9 |
| 20260831185026 | 74 | 31 | 2.0 | 8.0 | 0.00 | 0.00 | 0.00 | 36 | 1018.0 |
| 20260831184551 | 74 | 81 | 2.0 | 8.0 | 0.00 | 0.00 | 0.00 | 31 | 1018.0 |
| 20260831184025 | 74 | 24 | 3.0 | 8.0 | 0.00 | 0.00 | 0.00 | 29 | 1018.1 |
| 20260831183528 | 74 | 98 | 2.0 | 7.0 | 0.00 | 0.00 | 0.00 | 27 | 1018.1 |
| 20260831183046 | 73 | 143 | 1.0 | 7.0 | 0.00 | 0.00 | 0.00 | 36 | 1018.2 |
| 20260831182525 | 73 | 169 | 1.0 | 7.0 | 0.00 | 0.00 | 0.00 | 29 | 1018.2 |
| 20260831182029 | 73 | 101 | 2.0 | 7.0 | 0.00 | 0.00 | 0.00 | 26 | 1018.3 |
| 20260831181548 | 73 | 56 | 3.0 | 7.0 | 0.00 | 0.00 | 0.00 | 27 | 1018.2 |
| 20260831181024 | 73 | 127 | 2.0 | 5.0 | 0.00 | 0.00 | 0.00 | 32 | 1018.3 |
| 20260831180526 | 72 | 0 | 1.0 | 5.0 | 0.00 | 0.00 | 0.00 | 28 | 1018.4 |
| 20260831180049 | 72 | 350 | 0.0 | 6.0 | 0.00 | 0.00 | 0.00 | 34 | 1018.4 |
| 20260831175525 | 72 | 77 | 2.0 | 6.0 | 0.00 | 0.00 | 0.00 | 28 | 1018.4 |
| 20260831175029 | 71 | 293 | 0.0 | 4.0 | 0.00 | 0.00 | 0.00 | 34 | 1018.4 |
| 20260831174548 | 71 | 360 | 1.0 | 4.0 | 0.00 | 0.00 | 0.00 | 29 | 1018.4 |
| 20260831174027 | 71 | 339 | 2.0 | 4.0 | 0.00 | 0.00 | 0.00 | 35 | 1018.4 |
| 20260831173524 | 70 | 269 | 1.0 | 4.0 | 0.00 | 0.00 | 0.00 | 28 | 1018.4 |
| 20260831173047 | 70 | 274 | 1.0 | 5.0 | 0.00 | 0.00 | 0.00 | 28 | 1018.4 |
| 20260831172524 | 70 | 262 | 2.0 | 5.0 | 0.00 | 0.00 | 0.00 | 33 | 1018.5 |
| 20260831172029 | 70 | 155 | 1.0 | 8.0 | 0.00 | 0.00 | 0.00 | 36 | 1018.6 |
| 20260831171545 | 69 | 56 | 2.0 | 8.0 | 0.00 | 0.00 | 0.00 | 44 | 1018.7 |
| 20260831171025 | 69 | 58 | 1.0 | 6.0 | 0.00 | 0.00 | 0.00 | 48 | 1018.7 |
| 20260831170529 | 68 | 127 | 2.0 | 5.0 | 0.00 | 0.00 | 0.00 | 48 | 1018.7 |
| 20260831170050 | 67 | 89 | 2.0 | 6.0 | 0.00 | 0.00 | 0.00 | 51 | 1018.6 |
| 20260831165527 | 67 | 131 | 2.0 | 6.0 | 0.00 | 0.00 | 0.00 | 50 | 1018.7 |
| 20260831165024 | 66 | 13 | 1.0 | 5.0 | 0.00 | 0.00 | 0.00 | 55 | 1018.7 |
| 20260831164545 | 65 | 96 | 3.0 | 5.0 | 0.00 | 0.00 | 0.00 | 53 | 1018.6 |
| 20260831164024 | 65 | 51 | 2.0 | 5.0 | 0.00 | 0.00 | 0.00 | 52 | 1018.6 |
| 20260831163526 | 65 | 48 | 2.0 | 5.0 | 0.00 | 0.00 | 0.00 | 49 | 1018.5 |
| 20260831163045 | 65 | 73 | 1.0 | 5.0 | 0.00 | 0.00 | 0.00 | 53 | 1018.6 |
| 20260831162527 | 64 | 56 | 2.0 | 5.0 | 0.00 | 0.00 | 0.00 | 49 | 1018.6 |
| 20260831162027 | 64 | 0 | 0.0 | 4.0 | 0.00 | 0.00 | 0.00 | 48 | 1018.7 |
| 20260831161551 | 64 | 111 | 2.0 | 5.0 | 0.00 | 0.00 | 0.00 | 47 | 1018.8 |
| 20260831161024 | 64 | 15 | 1.0 | 5.0 | 0.00 | 0.00 | 0.00 | 57 | 1018.7 |
| 20260831160524 | 64 | 347 | 0.0 | 3.0 | 0.00 | 0.00 | 0.00 | 53 | 1018.7 |
| 20260831160047 | 63 | 122 | 0.0 | 2.0 | 0.00 | 0.00 | 0.00 | 55 | 1018.7 |
| 20260831155524 | 62 | 0 | 0.0 | 2.0 | 0.00 | 0.00 | 0.00 | 53 | 1018.8 |
| 20260831155028 | 62 | 0 | 0.0 | 2.0 | 0.00 | 0.00 | 0.00 | 56 | 1018.8 |
| 20260831154622 | 61 | 0 | 0.0 | 2.0 | 0.00 | 0.00 | 0.00 | 61 | 1018.9 |
| 20260831154025 | 61 | 0 | 0.0 | 2.0 | 0.00 | 0.00 | 0.00 | 60 | 1018.8 |
| 20260831153527 | 60 | 0 | 0.0 | 3.0 | 0.00 | 0.00 | 0.00 | 61 | 1018.9 |
| 20260831153057 | 59 | 146 | 1.0 | 3.0 | 0.00 | 0.00 | 0.00 | 60 | 1018.8 |
| 20260831152526 | 59 | 0 | 0.0 | 2.0 | 0.00 | 0.00 | 0.00 | 60 | 1018.8 |
| 20260831152027 | 58 | 0 | 0.0 | 2.0 | 0.00 | 0.00 | 0.00 | 63 | 1018.7 |
| 20260831151606 | 57 | 0 | 0.0 | 2.0 | 0.00 | 0.00 | 0.00 | 63 | 1018.7 |
| 20260831151026 | 57 | 345 | 0.0 | 2.0 | 0.00 | 0.00 | 0.00 | 66 | 1018.7 |
| 20260831150530 | 57 | 0 | 0.0 | 0.0 | 0.00 | 0.00 | 0.00 | 69 | 1018.7 |
| 20260831150049 | 56 | 0 | 0.0 | 0.0 | 0.00 | 0.00 | 0.00 | 72 | 1018.7 |
| 20260831145525 | 56 | 0 | 0.0 | 0.0 | 0.00 | 0.00 | 0.00 | 71 | 1018.7 |
| 20260831145030 | 55 | 0 | 0.0 | 0.0 | 0.00 | 0.00 | 0.00 | 75 | 1018.8 |
| 20260831144545 | 55 | 0 | 0.0 | 0.0 | 0.00 | 0.00 | 0.00 | 74 | 1018.7 |
| 20260831144025 | 54 | 0 | 0.0 | 3.0 | 0.00 | 0.00 | 0.00 | 73 | 1018.5 |
| 20260831143523 | 54 | 0 | 0.0 | 3.0 | 0.00 | 0.00 | 0.00 | 74 | 1018.4 |
| 20260831143105 | 53 | 113 | 1.0 | 3.0 | 0.00 | 0.00 | 0.00 | 75 | 1018.4 |
| 20260831142525 | 52 | 0 | 0.0 | 3.0 | 0.00 | 0.00 | 0.00 | 78 | 1018.3 |
| 20260831142029 | 52 | 0 | 1.0 | 3.0 | 0.00 | 0.00 | 0.00 | 78 | 1018.3 |
| 20260831141548 | 51 | 0 | 0.0 | 1.0 | 0.00 | 0.00 | 0.00 | 81 | 1018.1 |
| 20260831141026 | 50 | 0 | 0.0 | 2.0 | 0.00 | 0.00 | 0.00 | 82 | 1018.1 |
| 20260831140525 | 49 | 0 | 0.0 | 2.0 | 0.00 | 0.00 | 0.00 | 85 | 1018.1 |
| 20260831140045 | 48 | 0 | 0.0 | 2.0 | 0.00 | 0.00 | 0.00 | 85 | 1018.0 |
| 20260831135526 | 47 | 193 | 0.0 | 2.0 | 0.00 | 0.00 | 0.00 | 86 | 1018.0 |
| 20260831135025 | 46 | 0 | 0.0 | 2.0 | 0.00 | 0.00 | 0.00 | 87 | 1018.0 |
| 20260831134555 | 46 | 0 | 0.0 | 2.0 | 0.00 | 0.00 | 0.00 | 87 | 1018.0 |
| 20260831134024 | 45 | 193 | 0.0 | 1.0 | 0.00 | 0.00 | 0.00 | 89 | 1017.8 |
| 20260831133524 | 44 | 0 | 0.0 | 0.0 | 0.00 | 0.00 | 0.00 | 90 | 1017.8 |
| 20260831133056 | 44 | 0 | 0.0 | 0.0 | 0.00 | 0.00 | 0.00 | 90 | 1017.7 |
| 20260831132525 | 43 | 0 | 0.0 | 0.0 | 0.00 | 0.00 | 0.00 | 89 | 1017.7 |
| 20260831132032 | 43 | 0 | 0.0 | 0.0 | 0.00 | 0.00 | 0.00 | 88 | 1017.6 |
| 20260831131605 | 43 | 0 | 0.0 | 0.0 | 0.00 | 0.00 | 0.00 | 89 | 1017.5 |
| 20260831131025 | 43 | 0 | 0.0 | 0.0 | 0.00 | 0.00 | 0.00 | 89 | 1017.4 |
| 20260831130527 | 43 | 0 | 0.0 | 0.0 | 0.00 | 0.00 | 0.00 | 88 | 1017.4 |
| 20260831130105 | 42 | 0 | 0.0 | 0.0 | 0.00 | 0.00 | 0.00 | 88 | 1017.3 |
| 20260831125525 | 42 | 0 | 0.0 | 0.0 | 0.00 | 0.00 | 0.00 | 87 | 1017.3 |
| 20260831125025 | 42 | 0 | 0.0 | 0.0 | 0.00 | 0.00 | 0.00 | 87 | 1017.2 |
| 20260831124549 | 42 | 0 | 0.0 | 0.0 | 0.00 | 0.00 | 0.00 | 87 | 1017.2 |
| 20260831124025 | 42 | 0 | 0.0 | 0.0 | 0.00 | 0.00 | 0.00 | 87 | 1017.2 |
| 20260831123525 | 42 | 0 | 0.0 | 0.0 | 0.00 | 0.00 | 0.00 | 87 | 1017.1 |
| 20260831123057 | 42 | 0 | 0.0 | 0.0 | 0.00 | 0.00 | 0.00 | 87 | 1017.0 |
| 20260831122529 | 42 | 0 | 0.0 | 0.0 | 0.00 | 0.00 | 0.00 | 87 | 1017.0 |
| 20260831122027 | 42 | 0 | 0.0 | 0.0 | 0.00 | 0.00 | 0.00 | 87 | 1017.0 |
| 20260831121551 | 42 | 0 | 0.0 | 0.0 | 0.00 | 0.00 | 0.00 | 87 | 1017.0 |
| 20260831121027 | 43 | 0 | 0.0 | 0.0 | 0.00 | 0.00 | 0.00 | 87 | 1016.9 |
| 20260831120527 | 43 | 0 | 0.0 | 0.0 | 0.00 | 0.00 | 0.00 | 87 | 1017.0 |
| 20260831120054 | 43 | 0 | 0.0 | 0.0 | 0.00 | 0.00 | 0.00 | 86 | 1016.9 |
| 20260831115528 | 43 | 0 | 0.0 | 0.0 | 0.00 | 0.00 | 0.00 | 87 | 1016.9 |
| 20260831115028 | 43 | 0 | 0.0 | 0.0 | 0.00 | 0.00 | 0.00 | 87 | 1016.7 |
| 20260831114546 | 43 | 0 | 0.0 | 0.0 | 0.00 | 0.00 | 0.00 | 87 | 1016.9 |
| 20260831114025 | 43 | 0 | 0.0 | 0.0 | 0.00 | 0.00 | 0.00 | 87 | 1017.0 |
| 20260831113525 | 43 | 0 | 0.0 | 1.0 | 0.00 | 0.00 | 0.00 | 87 | 1016.8 |
| 20260831113051 | 43 | 0 | 0.0 | 3.0 | 0.00 | 0.00 | 0.00 | 88 | 1016.7 |
| 20260831112527 | 43 | 186 | 0.0 | 6.0 | 0.00 | 0.00 | 0.00 | 87 | 1016.7 |
| 20260831112029 | 44 | 186 | 2.0 | 6.0 | 0.00 | 0.00 | 0.00 | 87 | 1016.6 |
| 20260831111545 | 44 | 179 | 1.0 | 6.0 | 0.00 | 0.00 | 0.00 | 87 | 1016.7 |
| 20260831111032 | 44 | 0 | 0.0 | 2.0 | 0.00 | 0.00 | 0.00 | 87 | 1016.6 |
| 20260831110531 | 44 | 0 | 0.0 | 2.0 | 0.00 | 0.00 | 0.00 | 88 | 1016.5 |
| 20260831110047 | 44 | 0 | 0.0 | 1.0 | 0.00 | 0.00 | 0.00 | 87 | 1016.5 |
| 20260831105530 | 45 | 0 | 0.0 | 2.0 | 0.00 | 0.00 | 0.00 | 88 | 1016.4 |
| 20260831105026 | 45 | 256 | 0.0 | 2.0 | 0.00 | 0.00 | 0.00 | 88 | 1016.4 |
| 20260831104555 | 45 | 0 | 0.0 | 3.0 | 0.00 | 0.00 | 0.00 | 88 | 1016.5 |
| 20260831104025 | 45 | 254 | 1.0 | 3.0 | 0.00 | 0.00 | 0.00 | 88 | 1016.5 |
| 20260831103525 | 45 | 256 | 0.0 | 3.0 | 0.00 | 0.00 | 0.00 | 88 | 1016.6 |
| 20260831103054 | 45 | 217 | 0.0 | 2.0 | 0.00 | 0.00 | 0.00 | 87 | 1016.4 |
| 20260831102529 | 45 | 0 | 0.0 | 2.0 | 0.00 | 0.00 | 0.00 | 88 | 1016.3 |
| 20260831102028 | 45 | 0 | 0.0 | 1.0 | 0.00 | 0.00 | 0.00 | 88 | 1016.3 |
| 20260831101558 | 45 | 0 | 0.0 | 2.0 | 0.00 | 0.00 | 0.00 | 88 | 1016.4 |
| 20260831101028 | 45 | 0 | 0.0 | 3.0 | 0.00 | 0.00 | 0.00 | 88 | 1016.3 |
| 20260831100529 | 45 | 217 | 1.0 | 3.0 | 0.00 | 0.00 | 0.00 | 88 | 1016.2 |
| 20260831095528 | 45 | 302 | 0.0 | 2.0 | 0.00 | 0.00 | 0.00 | 87 | 1016.1 |
| 20260831095031 | 45 | 0 | 0.0 | 2.0 | 0.00 | 0.00 | 0.00 | 87 | 1016.0 |
| 20260831094559 | 46 | 0 | 0.0 | 3.0 | 0.00 | 0.00 | 0.00 | 87 | 1015.9 |
| 20260831094029 | 46 | 1 | 1.0 | 3.0 | 0.00 | 0.00 | 0.00 | 87 | 1016.0 |
| 20260831093523 | 46 | 0 | 0.0 | 0.0 | 0.00 | 0.00 | 0.00 | 87 | 1015.9 |
| 20260831093055 | 46 | 0 | 0.0 | 0.0 | 0.00 | 0.00 | 0.00 | 87 | 1016.0 |
| 20260831092529 | 46 | 0 | 0.0 | 0.0 | 0.00 | 0.00 | 0.00 | 86 | 1016.0 |
| 20260831092032 | 46 | 0 | 0.0 | 3.0 | 0.00 | 0.00 | 0.00 | 85 | 1015.9 |
| 20260831091548 | 46 | 0 | 0.0 | 3.0 | 0.00 | 0.00 | 0.00 | 86 | 1016.0 |
| 20260831091030 | 47 | 159 | 0.0 | 3.0 | 0.00 | 0.00 | 0.00 | 86 | 1016.0 |
| 20260831090527 | 47 | 0 | 0.0 | 2.0 | 0.00 | 0.00 | 0.00 | 86 | 1015.8 |
| 20260831090050 | 47 | 0 | 0.0 | 3.0 | 0.00 | 0.00 | 0.00 | 85 | 1015.8 |
| 20260831085528 | 47 | 0 | 0.0 | 4.0 | 0.00 | 0.00 | 0.00 | 85 | 1015.8 |
| 20260831085028 | 47 | 341 | 2.0 | 4.0 | 0.00 | 0.00 | 0.00 | 85 | 1015.8 |
| 20260831084549 | 47 | 0 | 0.0 | 2.0 | 0.00 | 0.00 | 0.00 | 85 | 1015.6 |
| 20260831084028 | 48 | 0 | 1.0 | 2.0 | 0.00 | 0.00 | 0.00 | 85 | 1015.6 |
| 20260831083525 | 48 | 0 | 0.0 | 3.0 | 0.00 | 0.00 | 0.00 | 85 | 1015.5 |
| 20260831083046 | 47 | 0 | 0.0 | 3.0 | 0.00 | 0.00 | 0.00 | 85 | 1015.4 |
| 20260831082530 | 47 | 186 | 1.0 | 3.0 | 0.00 | 0.00 | 0.00 | 84 | 1015.4 |
| 20260831082024 | 48 | 186 | 2.0 | 3.0 | 0.00 | 0.00 | 0.00 | 83 | 1015.4 |
| 20260831081551 | 48 | 0 | 0.0 | 3.0 | 0.00 | 0.00 | 0.00 | 81 | 1015.4 |
| 20260831081025 | 49 | 0 | 0.0 | 4.0 | 0.00 | 0.00 | 0.00 | 81 | 1015.4 |
| 20260831080528 | 49 | 0 | 2.0 | 4.0 | 0.00 | 0.00 | 0.00 | 81 | 1015.4 |
| 20260831080046 | 50 | 0 | 0.0 | 2.0 | 0.00 | 0.00 | 0.00 | 83 | 1015.4 |
| 20260831075525 | 50 | 0 | 0.0 | 2.0 | 0.00 | 0.00 | 0.00 | 82 | 1015.2 |
| 20260831075031 | 50 | 0 | 0.0 | 2.0 | 0.00 | 0.00 | 0.00 | 82 | 1015.2 |
| 20260831074557 | 50 | 205 | 0.0 | 2.0 | 0.00 | 0.00 | 0.00 | 82 | 1015.2 |
| 20260831074029 | 50 | 205 | 0.0 | 2.0 | 0.00 | 0.00 | 0.00 | 82 | 1015.4 |
| 20260831073526 | 50 | 205 | 0.0 | 2.0 | 0.00 | 0.00 | 0.00 | 82 | 1015.4 |
| 20260831073051 | 50 | 205 | 0.0 | 2.0 | 0.00 | 0.00 | 0.00 | 82 | 1015.4 |
| 20260831072526 | 51 | 205 | 0.0 | 2.0 | 0.00 | 0.00 | 0.00 | 81 | 1015.3 |
| 20260831072026 | 51 | 205 | 0.0 | 2.0 | 0.00 | 0.00 | 0.00 | 81 | 1015.2 |
| 20260831071605 | 51 | 205 | 1.0 | 2.0 | 0.00 | 0.00 | 0.00 | 81 | 1015.3 |
| 20260831071026 | 51 | 205 | 0.0 | 2.0 | 0.00 | 0.00 | 0.00 | 80 | 1015.2 |
| 20260831070528 | 51 | 205 | 0.0 | 2.0 | 0.00 | 0.00 | 0.00 | 79 | 1015.3 |
| 20260831070047 | 52 | 205 | 0.0 | 2.0 | 0.00 | 0.00 | 0.00 | 78 | 1015.3 |
| 20260831065530 | 52 | 0 | 0.0 | 2.0 | 0.00 | 0.00 | 0.00 | 78 | 1015.2 |
| 20260831065032 | 52 | 0 | 1.0 | 3.0 | 0.00 | 0.00 | 0.00 | 78 | 1015.2 |
| 20260831064605 | 52 | 205 | 0.0 | 3.0 | 0.00 | 0.00 | 0.00 | 78 | 1015.2 |
| 20260831064031 | 53 | 204 | 1.0 | 4.0 | 0.00 | 0.00 | 0.00 | 78 | 1015.1 |
| 20260831063527 | 53 | 200 | 1.0 | 4.0 | 0.00 | 0.00 | 0.00 | 77 | 1015.1 |
| 20260831063052 | 53 | 198 | 2.0 | 3.0 | 0.00 | 0.00 | 0.00 | 77 | 1015.2 |
| 20260831062531 | 53 | 241 | 0.0 | 3.0 | 0.00 | 0.00 | 0.00 | 77 | 1015.2 |
| 20260831062025 | 53 | 259 | 1.0 | 3.0 | 0.00 | 0.00 | 0.00 | 77 | 1015.2 |
| 20260831061548 | 54 | 181 | 2.0 | 3.0 | 0.00 | 0.00 | 0.00 | 77 | 1015.2 |
| 20260831061025 | 54 | 239 | 1.0 | 3.0 | 0.00 | 0.00 | 0.00 | 76 | 1015.2 |
| 20260831060528 | 54 | 225 | 1.0 | 3.0 | 0.00 | 0.00 | 0.00 | 76 | 1015.1 |
| 20260831060104 | 54 | 226 | 1.0 | 3.0 | 0.00 | 0.00 | 0.00 | 75 | 1015.2 |
| 20260831055535 | 54 | 0 | 0.0 | 0.0 | 0.00 | 0.00 | 0.00 | 74 | 1015.2 |
| 20260831055027 | 54 | 0 | 0.0 | 0.0 | 0.00 | 0.00 | 0.00 | 74 | 1015.2 |
| 20260831054547 | 54 | 0 | 0.0 | 0.0 | 0.00 | 0.00 | 0.00 | 74 | 1015.2 |
| 20260831054030 | 54 | 0 | 0.0 | 2.0 | 0.00 | 0.00 | 0.00 | 75 | 1015.1 |
| 20260831053527 | 54 | 0 | 0.0 | 2.0 | 0.00 | 0.00 | 0.00 | 75 | 1015.1 |
| 20260831053100 | 54 | 221 | 1.0 | 2.0 | 0.00 | 0.00 | 0.00 | 75 | 1015.0 |
| 20260831052525 | 54 | 221 | 0.0 | 3.0 | 0.00 | 0.00 | 0.00 | 74 | 1015.2 |
| 20260831052027 | 54 | 0 | 0.0 | 3.0 | 0.00 | 0.00 | 0.00 | 73 | 1015.2 |
| 20260831051557 | 55 | 210 | 0.0 | 3.0 | 0.00 | 0.00 | 0.00 | 73 | 1015.0 |
| 20260831051027 | 55 | 210 | 0.0 | 4.0 | 0.00 | 0.00 | 0.00 | 72 | 1015.0 |
| 20260831050528 | 55 | 210 | 1.0 | 4.0 | 0.00 | 0.00 | 0.00 | 71 | 1015.0 |
| 20260831050055 | 55 | 0 | 0.0 | 2.0 | 0.00 | 0.00 | 0.00 | 72 | 1015.0 |
| 20260831045527 | 55 | 0 | 0.0 | 2.0 | 0.00 | 0.00 | 0.00 | 72 | 1015.1 |
| 20260831045028 | 55 | 43 | 1.0 | 2.0 | 0.00 | 0.00 | 0.00 | 73 | 1015.0 |
| 20260831044549 | 55 | 35 | 0.0 | 1.0 | 0.00 | 0.00 | 0.00 | 72 | 1014.9 |
| 20260831044029 | 56 | 0 | 0.0 | 1.0 | 0.00 | 0.00 | 0.00 | 72 | 1015.0 |
| 20260831043527 | 56 | 0 | 0.0 | 1.0 | 0.00 | 0.00 | 0.00 | 71 | 1014.9 |
| 20260831043053 | 56 | 0 | 0.0 | 1.0 | 0.00 | 0.00 | 0.00 | 71 | 1015.0 |
| 20260831042528 | 56 | 0 | 0.0 | 2.0 | 0.00 | 0.00 | 0.00 | 71 | 1015.0 |
| 20260831042027 | 56 | 0 | 0.0 | 2.0 | 0.00 | 0.00 | 0.00 | 72 | 1015.0 |
| 20260831041550 | 56 | 35 | 0.0 | 2.0 | 0.00 | 0.00 | 0.00 | 70 | 1015.0 |
| 20260831041030 | 56 | 0 | 0.0 | 2.0 | 0.00 | 0.00 | 0.00 | 69 | 1015.0 |
| 20260831040528 | 57 | 0 | 0.0 | 2.0 | 0.00 | 0.00 | 0.00 | 69 | 1014.8 |
| 20260831040054 | 57 | 35 | 0.0 | 2.0 | 0.00 | 0.00 | 0.00 | 69 | 1014.9 |
| 20260831035526 | 57 | 0 | 0.0 | 3.0 | 0.00 | 0.00 | 0.00 | 67 | 1014.8 |
| 20260831035028 | 58 | 0 | 0.0 | 3.0 | 0.00 | 0.00 | 0.00 | 68 | 1014.9 |
| 20260831034547 | 58 | 35 | 1.0 | 3.0 | 0.00 | 0.00 | 0.00 | 67 | 1015.0 |
| 20260831034027 | 58 | 35 | 1.0 | 2.0 | 0.00 | 0.00 | 0.00 | 64 | 1015.0 |
| 20260831033528 | 59 | 0 | 0.0 | 0.0 | 0.00 | 0.00 | 0.00 | 65 | 1014.7 |
| 20260831033052 | 59 | 0 | 0.0 | 2.0 | 0.00 | 0.00 | 0.00 | 63 | 1014.6 |
| 20260831032528 | 59 | 0 | 0.0 | 2.0 | 0.00 | 0.00 | 0.00 | 63 | 1014.8 |
| 20260831032030 | 60 | 56 | 0.0 | 2.0 | 0.00 | 0.00 | 0.00 | 63 | 1014.5 |
| 20260831031553 | 60 | 0 | 0.0 | 1.0 | 0.00 | 0.00 | 0.00 | 61 | 1014.4 |
| 20260831031032 | 61 | 0 | 0.0 | 2.0 | 0.00 | 0.00 | 0.00 | 60 | 1014.4 |
| 20260831030525 | 61 | 0 | 0.0 | 2.0 | 0.00 | 0.00 | 0.00 | 59 | 1014.3 |
| 20260831030050 | 61 | 0 | 0.0 | 2.0 | 0.00 | 0.00 | 0.00 | 58 | 1014.2 |
| 20260831025528 | 62 | 0 | 0.0 | 2.0 | 0.00 | 0.00 | 0.00 | 58 | 1014.3 |
| 20260831025028 | 62 | 0 | 0.0 | 2.0 | 0.00 | 0.00 | 0.00 | 56 | 1014.2 |
| 20260831024546 | 62 | 0 | 0.0 | 2.0 | 0.00 | 0.00 | 0.00 | 55 | 1014.0 |
| 20260831024028 | 63 | 55 | 0.0 | 2.0 | 0.00 | 0.00 | 0.00 | 55 | 1014.0 |
| 20260831023528 | 63 | 0 | 0.0 | 3.0 | 0.00 | 0.00 | 0.00 | 55 | 1013.9 |
| 20260831023107 | 63 | 0 | 0.0 | 3.0 | 0.00 | 0.00 | 0.00 | 55 | 1013.7 |
| 20260831022528 | 63 | 55 | 0.0 | 2.0 | 0.00 | 0.00 | 0.00 | 55 | 1013.7 |
| 20260831022027 | 64 | 0 | 0.0 | 2.0 | 0.00 | 0.00 | 0.00 | 53 | 1013.7 |
| 20260831021553 | 64 | 0 | 0.0 | 0.0 | 0.00 | 0.00 | 0.00 | 53 | 1013.6 |
| 20260831021031 | 65 | 0 | 0.0 | 0.0 | 0.00 | 0.00 | 0.00 | 53 | 1013.5 |
| 20260831020527 | 66 | 0 | 0.0 | 0.0 | 0.00 | 0.00 | 0.00 | 52 | 1013.4 |
| 20260831020109 | 66 | 0 | 0.0 | 0.0 | 0.00 | 0.00 | 0.00 | 51 | 1013.4 |
| 20260831015527 | 67 | 0 | 0.0 | 0.0 | 0.00 | 0.00 | 0.00 | 50 | 1013.3 |
| 20260831015025 | 68 | 0 | 0.0 | 0.0 | 0.00 | 0.00 | 0.00 | 50 | 1013.3 |
| 20260831014549 | 69 | 0 | 0.0 | 1.0 | 0.00 | 0.00 | 0.00 | 50 | 1013.2 |
| 20260831014028 | 69 | 0 | 0.0 | 2.0 | 0.00 | 0.00 | 0.00 | 49 | 1013.1 |
| 20260831013529 | 71 | 0 | 0.0 | 2.0 | 0.00 | 0.00 | 0.00 | 49 | 1013.2 |
| 20260831013047 | 72 | 0 | 0.0 | 0.0 | 0.00 | 0.00 | 0.00 | 44 | 1013.1 |
| 20260831012527 | 73 | 0 | 0.0 | 0.0 | 0.00 | 0.00 | 0.00 | 42 | 1013.1 |
| 20260831012028 | 73 | 0 | 0.0 | 0.0 | 0.00 | 0.00 | 0.00 | 43 | 1013.0 |
| 20260831011556 | 74 | 0 | 0.0 | 0.0 | 0.00 | 0.00 | 0.00 | 45 | 1012.9 |
| 20260831011028 | 74 | 0 | 0.0 | 0.0 | 0.00 | 0.00 | 0.00 | 42 | 1012.9 |
| 20260831010526 | 75 | 0 | 0.0 | 0.0 | 0.00 | 0.00 | 0.00 | 45 | 1013.1 |
| 20260831010052 | 76 | 0 | 0.0 | 0.0 | 0.00 | 0.00 | 0.00 | 43 | 1013.0 |
| 20260831005528 | 76 | 0 | 0.0 | 0.0 | 0.00 | 0.00 | 0.00 | 41 | 1012.8 |
| 20260831005027 | 76 | 0 | 0.0 | 0.0 | 0.00 | 0.00 | 0.00 | 41 | 1012.8 |
| 20260831004549 | 76 | 0 | 0.0 | 0.0 | 0.00 | 0.00 | 0.00 | 41 | 1012.8 |
| 20260831004028 | 76 | 0 | 0.0 | 0.0 | 0.00 | 0.00 | 0.00 | 41 | 1013.0 |
| 20260831003528 | 77 | 0 | 0.0 | 1.0 | 0.00 | 0.00 | 0.00 | 40 | 1012.9 |
| 20260831003050 | 77 | 0 | 0.0 | 2.0 | 0.00 | 0.00 | 0.00 | 44 | 1013.0 |
| 20260831002524 | 76 | 295 | 0.0 | 2.0 | 0.00 | 0.00 | 0.00 | 40 | 1013.0 |
| 20260831002033 | 76 | 294 | 0.0 | 2.0 | 0.00 | 0.00 | 0.00 | 41 | 1012.9 |
| 20260831001549 | 76 | 0 | 0.0 | 2.0 | 0.00 | 0.00 | 0.00 | 44 | 1013.0 |
| 20260831001028 | 76 | 311 | 0.0 | 3.0 | 0.00 | 0.00 | 0.00 | 43 | 1013.0 |
| 20260831000528 | 75 | 0 | 0.0 | 3.0 | 0.00 | 0.00 | 0.00 | 43 | 1013.0 |
| 20260831000048 | 76 | 340 | 1.0 | 3.0 | 0.00 | 0.00 | 0.00 | 42 | 1012.8 |
| 20260830235527 | 76 | 239 | 0.0 | 2.0 | 0.00 | 0.00 | 0.00 | 41 | 1012.8 |
| 20260830235027 | 76 | 0 | 1.0 | 2.0 | 0.00 | 0.00 | 0.00 | 45 | 1012.8 |
| 20260830234548 | 76 | 0 | 0.0 | 3.0 | 0.00 | 0.00 | 0.00 | 43 | 1012.7 |
| 20260830234027 | 75 | 0 | 0.0 | 3.0 | 0.00 | 0.00 | 0.00 | 46 | 1012.8 |
| 20260830233524 | 75 | 340 | 0.0 | 3.0 | 0.00 | 0.00 | 0.00 | 44 | 1012.8 |
| 20260830233051 | 74 | 0 | 1.0 | 5.0 | 0.00 | 0.00 | 0.00 | 40 | 1013.0 |
| 20260830232527 | 74 | 24 | 2.0 | 6.0 | 0.00 | 0.00 | 0.00 | 43 | 1012.9 |
| 20260830232027 | 75 | 359 | 2.0 | 6.0 | 0.00 | 0.00 | 0.00 | 43 | 1012.8 |
| 20260830231546 | 75 | 0 | 1.0 | 6.0 | 0.00 | 0.00 | 0.00 | 44 | 1012.8 |
| 20260830231024 | 74 | 264 | 1.0 | 6.0 | 0.00 | 0.00 | 0.00 | 45 | 1012.8 |
| 20260830230525 | 74 | 344 | 3.0 | 7.0 | 0.00 | 0.00 | 0.00 | 45 | 1012.8 |
| 20260830230046 | 74 | 330 | 2.0 | 7.0 | 0.00 | 0.00 | 0.00 | 47 | 1012.8 |
| 20260830225524 | 74 | 345 | 3.0 | 8.0 | 0.00 | 0.00 | 0.00 | 46 | 1012.8 |
| 20260830225026 | 75 | 15 | 4.0 | 8.0 | 0.00 | 0.00 | 0.00 | 44 | 1012.7 |
| 20260830224556 | 75 | 1 | 2.0 | 6.0 | 0.00 | 0.00 | 0.00 | 48 | 1012.7 |
| 20260830224028 | 75 | 359 | 2.0 | 6.0 | 0.00 | 0.00 | 0.00 | 44 | 1012.6 |
| 20260830223525 | 75 | 343 | 1.0 | 6.0 | 0.00 | 0.00 | 0.00 | 45 | 1012.8 |
| 20260830223047 | 75 | 334 | 2.0 | 6.0 | 0.00 | 0.00 | 0.00 | 43 | 1012.7 |